Time,TemperatureF,DewpointF,PressureIn,WindDirection,WindDirectionDegrees,WindSpeedMPH,WindSpeedGustMPH,Humidity,HourlyPrecipIn,Conditions,Clouds,dailyrainin,SoftwareType,DateUTC
2013-02-24 00:01:00,8.0,6.0,29.99,SE,142,0.0,1.0,91,0.00,,,0.00,,2013-02-24 06:01:00,
2013-02-24 00:11:00,8.0,6.0,29.99,SE,142,0.0,1.0,91,0.00,,,0.00,,2013-02-24 06:11:00,
2013-02-24 00:21:00,8.0,6.0,29.99,SE,142,0.0,1.0,91,0.00,,,0.00,,2013-02-24 06:21:00,
2013-02-24 00:31:00,9.0,7.0,29.98,SSE,168,0.0,1.0,91,0.00,,,0.00,,2013-02-24 06:31:00,
2013-02-24 00:42:00,9.0,7.0,29.98,SSE,168,0.0,1.0,91,0.00,,,0.00,,2013-02-24 06:42:00,
2013-02-24 00:52:00,9.0,7.0,29.99,South,187,0.0,1.0,90,0.00,,,0.00,,2013-02-24 06:52:00,
2013-02-24 01:01:00,7.0,4.0,29.99,SW,221,0.0,1.0,89,0.00,,,0.00,,2013-02-24 07:01:00,
2013-02-24 01:12:00,7.0,4.0,29.99,SW,221,0.0,1.0,89,0.00,,,0.00,,2013-02-24 07:12:00,
2013-02-24 01:21:00,6.0,3.0,30.00,SW,229,1.0,1.0,88,0.00,,,0.00,,2013-02-24 07:21:00,
2013-02-24 01:32:00,6.0,3.0,30.00,SW,229,1.0,1.0,88,0.00,,,0.00,,2013-02-24 07:32:00,
2013-02-24 01:42:00,6.0,3.0,30.00,SW,229,1.0,1.0,88,0.00,,,0.00,,2013-02-24 07:42:00,
2013-02-24 01:52:00,6.0,4.0,30.01,SW,218,0.0,1.0,90,0.00,,,0.00,,2013-02-24 07:52:00,
2013-02-24 02:01:00,7.0,5.0,30.01,SW,216,0.0,1.0,90,0.00,,,0.00,,2013-02-24 08:01:00,
2013-02-24 02:11:00,7.0,5.0,30.01,SW,216,0.0,1.0,90,0.00,,,0.00,,2013-02-24 08:11:00,
2013-02-24 02:22:00,7.0,5.0,30.01,SW,215,0.0,0.0,90,0.00,,,0.00,,2013-02-24 08:22:00,
2013-02-24 02:31:00,7.0,5.0,30.01,SW,219,0.0,1.0,91,0.00,,,0.00,,2013-02-24 08:31:00,
2013-02-24 02:42:00,7.0,5.0,30.01,SW,219,0.0,1.0,91,0.00,,,0.00,,2013-02-24 08:42:00,
2013-02-24 02:53:00,6.0,3.0,30.01,ESE,118,0.0,0.0,89,0.00,,,0.00,,2013-02-24 08:53:00,
2013-02-24 03:01:00,6.0,3.0,30.01,ESE,118,0.0,0.0,89,0.00,,,0.00,,2013-02-24 09:01:00,
2013-02-24 03:11:00,6.0,3.0,30.01,ESE,118,0.0,0.0,89,0.00,,,0.00,,2013-02-24 09:11:00,
2013-02-24 03:21:00,5.0,2.0,30.01,East,91,0.0,0.0,88,0.00,,,0.00,,2013-02-24 09:21:00,
2013-02-24 03:31:00,3.0,0.0,30.02,ENE,72,0.0,1.0,88,0.00,,,0.00,,2013-02-24 09:31:00,
2013-02-24 03:42:00,3.0,0.0,30.02,ENE,72,0.0,1.0,88,0.00,,,0.00,,2013-02-24 09:42:00,
2013-02-24 03:51:00,4.0,2.0,30.02,ENE,72,0.0,1.0,89,0.00,,,0.00,,2013-02-24 09:51:00,
2013-02-24 04:01:00,3.0,1.0,30.02,SW,234,0.0,1.0,90,0.00,,,0.00,,2013-02-24 10:01:00,
2013-02-24 04:11:00,3.0,1.0,30.02,SW,234,0.0,1.0,90,0.00,,,0.00,,2013-02-24 10:11:00,
2013-02-24 04:21:00,3.0,1.0,30.02,SW,234,0.0,1.0,90,0.00,,,0.00,,2013-02-24 10:21:00,
2013-02-24 04:32:00,3.0,0.0,30.02,East,97,0.0,1.0,87,0.00,,,0.00,,2013-02-24 10:32:00,
2013-02-24 04:41:00,3.0,0.0,30.02,East,97,0.0,1.0,87,0.00,,,0.00,,2013-02-24 10:41:00,
2013-02-24 04:52:00,3.0,0.0,30.02,East,97,0.0,1.0,87,0.00,,,0.00,,2013-02-24 10:52:00,
2013-02-24 05:01:00,1.0,-2.0,30.03,SW,225,0.0,1.0,88,0.00,,,0.00,,2013-02-24 11:01:00,
2013-02-24 05:11:00,1.0,-2.0,30.03,SW,225,0.0,1.0,88,0.00,,,0.00,,2013-02-24 11:11:00,
2013-02-24 05:21:00,2.0,0.0,30.04,ESE,113,0.0,1.0,89,0.00,,,0.00,,2013-02-24 11:21:00,
2013-02-24 05:32:00,1.0,-2.0,30.03,East,86,0.0,1.0,87,0.00,,,0.00,,2013-02-24 11:32:00,
2013-02-24 05:41:00,1.0,-2.0,30.03,East,86,0.0,1.0,87,0.00,,,0.00,,2013-02-24 11:41:00,
2013-02-24 05:53:00,1.0,-2.0,30.03,East,86,0.0,1.0,87,0.00,,,0.00,,2013-02-24 11:53:00,
2013-02-24 06:01:00,1.0,-2.0,30.04,ESE,105,0.0,1.0,88,0.00,,,0.00,,2013-02-24 12:01:00,
2013-02-24 06:11:00,1.0,-2.0,30.04,ESE,105,0.0,1.0,88,0.00,,,0.00,,2013-02-24 12:11:00,
2013-02-24 06:21:00,1.0,-1.0,30.05,SSE,156,0.0,1.0,89,0.00,,,0.00,,2013-02-24 12:21:00,
2013-02-24 06:32:00,1.0,-2.0,30.05,SSE,156,0.0,0.0,88,0.00,,,0.00,,2013-02-24 12:32:00,
2013-02-24 06:46:00,1.0,-2.0,30.05,SSE,156,0.0,0.0,88,0.00,,,0.00,,2013-02-24 12:46:00,
2013-02-24 06:55:00,0.0,-3.0,30.07,SW,230,0.0,1.0,86,0.00,,,0.00,,2013-02-24 12:55:00,
2013-02-24 07:16:00,0.0,-3.0,30.07,SW,230,0.0,1.0,86,0.00,,,0.00,,2013-02-24 13:16:00,
2013-02-24 07:26:00,1.0,-1.0,30.07,WSW,243,0.0,1.0,89,0.00,,,0.00,,2013-02-24 13:26:00,
2013-02-24 07:33:00,1.0,-1.0,30.07,WSW,243,0.0,0.0,89,0.00,,,0.00,,2013-02-24 13:33:00,
2013-02-24 07:44:00,1.0,-1.0,30.07,WSW,243,0.0,0.0,89,0.00,,,0.00,,2013-02-24 13:44:00,
2013-02-24 07:53:00,3.0,0.0,30.08,WSW,242,0.0,0.0,87,0.00,,,0.00,,2013-02-24 13:53:00,
2013-02-24 08:04:00,1.0,-2.0,30.08,East,79,1.0,1.0,85,0.00,,,0.00,,2013-02-24 14:04:00,
2013-02-24 08:13:00,1.0,-2.0,30.08,East,79,1.0,1.0,85,0.00,,,0.00,,2013-02-24 14:13:00,
2013-02-24 08:24:00,1.0,-2.0,30.08,East,79,1.0,1.0,85,0.00,,,0.00,,2013-02-24 14:24:00,
2013-02-24 08:44:00,1.0,-2.0,30.08,East,80,1.0,1.0,87,0.00,,,0.00,,2013-02-24 14:44:00,
2013-02-24 08:53:00,4.0,2.0,30.09,SSW,212,0.0,1.0,89,0.00,,,0.00,,2013-02-24 14:53:00,
2013-02-24 09:03:00,7.0,4.0,30.08,SSE,161,0.0,0.0,89,0.00,,,0.00,,2013-02-24 15:03:00,
2013-02-24 09:13:00,7.0,4.0,30.08,SSE,161,0.0,0.0,89,0.00,,,0.00,,2013-02-24 15:13:00,
2013-02-24 09:23:00,9.0,6.0,30.09,SW,216,0.0,1.0,89,0.00,,,0.00,,2013-02-24 15:23:00,
2013-02-24 09:32:00,9.0,6.0,30.09,SW,216,0.0,1.0,89,0.00,,,0.00,,2013-02-24 15:32:00,
2013-02-24 09:42:00,9.0,6.0,30.09,SW,216,0.0,1.0,89,0.00,,,0.00,,2013-02-24 15:42:00,
2013-02-24 09:53:00,11.0,8.0,30.10,WSW,238,1.0,2.0,89,0.00,,,0.00,,2013-02-24 15:53:00,
2013-02-24 10:01:00,13.0,11.0,30.10,SW,235,0.0,0.0,91,0.00,,,0.00,,2013-02-24 16:01:00,
2013-02-24 10:11:00,13.0,11.0,30.10,SW,235,0.0,0.0,91,0.00,,,0.00,,2013-02-24 16:11:00,
2013-02-24 10:21:00,13.0,10.0,30.11,NNW,338,1.0,2.0,88,0.00,,,0.00,,2013-02-24 16:21:00,
2013-02-24 10:32:00,16.0,14.0,30.11,WNW,283,0.0,1.0,91,0.00,,,0.00,,2013-02-24 16:32:00,
2013-02-24 10:42:00,16.0,14.0,30.11,WNW,283,0.0,1.0,91,0.00,,,0.00,,2013-02-24 16:42:00,
2013-02-24 10:52:00,16.0,14.0,30.11,WNW,283,0.0,1.0,91,0.00,,,0.00,,2013-02-24 16:52:00,
2013-02-24 11:01:00,17.0,15.0,30.11,WNW,285,0.0,1.0,90,0.00,,,0.00,,2013-02-24 17:01:00,
2013-02-24 11:11:00,17.0,15.0,30.11,WNW,285,0.0,1.0,90,0.00,,,0.00,,2013-02-24 17:11:00,
2013-02-24 11:21:00,21.0,19.0,30.12,West,281,0.0,1.0,93,0.00,,,0.00,,2013-02-24 17:21:00,
2013-02-24 11:32:00,22.0,19.0,30.12,SW,236,0.0,3.0,88,0.00,,,0.00,,2013-02-24 17:32:00,
2013-02-24 11:42:00,22.0,19.0,30.12,SW,236,0.0,3.0,88,0.00,,,0.00,,2013-02-24 17:42:00,
2013-02-24 11:52:00,22.0,19.0,30.13,West,263,1.0,2.0,87,0.00,,,0.00,,2013-02-24 17:52:00,
2013-02-24 12:01:00,22.0,19.0,30.13,West,263,1.0,2.0,87,0.00,,,0.00,,2013-02-24 18:01:00,
2013-02-24 12:11:00,22.0,19.0,30.13,West,263,1.0,2.0,87,0.00,,,0.00,,2013-02-24 18:11:00,
2013-02-24 12:22:00,24.0,19.0,30.12,SW,225,1.0,2.0,82,0.00,,,0.00,,2013-02-24 18:22:00,
2013-02-24 12:32:00,25.0,19.0,30.12,NW,312,0.0,3.0,78,0.00,,,0.00,,2013-02-24 18:32:00,
2013-02-24 12:42:00,25.0,19.0,30.12,NW,312,0.0,3.0,78,0.00,,,0.00,,2013-02-24 18:42:00,
2013-02-24 12:51:00,29.0,21.0,30.12,ENE,78,1.0,2.0,71,0.00,,,0.00,,2013-02-24 18:51:00,
2013-02-24 13:01:00,31.0,21.0,30.11,SW,215,2.0,5.0,67,0.00,,,0.00,,2013-02-24 19:01:00,
2013-02-24 13:11:00,31.0,21.0,30.11,SW,215,2.0,5.0,67,0.00,,,0.00,,2013-02-24 19:11:00,
2013-02-24 13:22:00,31.0,21.0,30.11,SW,215,2.0,5.0,67,0.00,,,0.00,,2013-02-24 19:22:00,
2013-02-24 13:32:00,31.0,22.0,30.11,ENE,58,1.0,5.0,68,0.00,,,0.00,,2013-02-24 19:32:00,
2013-02-24 13:42:00,31.0,22.0,30.11,ENE,58,1.0,5.0,68,0.00,,,0.00,,2013-02-24 19:42:00,
2013-02-24 13:52:00,32.0,21.0,30.11,SSW,211,2.0,5.0,64,0.00,,,0.00,,2013-02-24 19:52:00,
2013-02-24 14:02:00,33.0,22.0,30.10,SSW,212,1.0,3.0,63,0.01,,,0.01,,2013-02-24 20:02:00,
2013-02-24 14:11:00,33.0,22.0,30.10,SSW,212,1.0,3.0,63,0.01,,,0.01,,2013-02-24 20:11:00,
2013-02-24 14:21:00,33.0,21.0,30.10,SW,215,2.0,7.0,62,0.01,,,0.01,,2013-02-24 20:21:00,
2013-02-24 14:32:00,33.0,22.0,30.09,WSW,256,1.0,6.0,64,0.01,,,0.01,,2013-02-24 20:32:00,
2013-02-24 14:42:00,33.0,22.0,30.09,WSW,256,1.0,6.0,64,0.01,,,0.01,,2013-02-24 20:42:00,
2013-02-24 14:52:00,33.0,22.0,30.09,WSW,256,1.0,6.0,64,0.01,,,0.01,,2013-02-24 20:52:00,
2013-02-24 15:01:00,31.0,21.0,30.09,ESE,116,2.0,4.0,65,0.00,,,0.01,,2013-02-24 21:01:00,
2013-02-24 15:11:00,31.0,21.0,30.09,ESE,116,2.0,4.0,65,0.00,,,0.01,,2013-02-24 21:11:00,
2013-02-24 15:21:00,32.0,22.0,30.09,SSW,211,1.0,7.0,66,0.00,,,0.01,,2013-02-24 21:21:00,
2013-02-24 15:32:00,32.0,21.0,30.09,East,100,4.0,6.0,64,0.00,,,0.01,,2013-02-24 21:32:00,
2013-02-24 15:42:00,32.0,21.0,30.09,East,100,4.0,6.0,64,0.00,,,0.01,,2013-02-24 21:42:00,
2013-02-24 15:52:00,32.0,21.0,30.09,SE,133,1.0,6.0,64,0.00,,,0.01,,2013-02-24 21:52:00,
2013-02-24 16:01:00,32.0,21.0,30.09,SE,133,1.0,6.0,64,0.00,,,0.01,,2013-02-24 22:01:00,
2013-02-24 16:11:00,32.0,21.0,30.09,SE,133,1.0,6.0,64,0.00,,,0.01,,2013-02-24 22:11:00,
2013-02-24 16:21:00,31.0,22.0,30.08,ENE,77,3.0,5.0,68,0.00,,,0.01,,2013-02-24 22:21:00,
2013-02-24 16:31:00,32.0,21.0,30.08,East,99,2.0,4.0,64,0.00,,,0.01,,2013-02-24 22:31:00,
2013-02-24 16:41:00,32.0,21.0,30.08,East,99,2.0,4.0,64,0.00,,,0.01,,2013-02-24 22:41:00,
2013-02-24 16:51:00,31.0,21.0,30.08,ESE,107,2.0,5.0,65,0.00,,,0.01,,2013-02-24 22:51:00,
2013-02-24 17:02:00,31.0,21.0,30.08,ESE,122,2.0,5.0,65,0.00,,,0.01,,2013-02-24 23:02:00,
2013-02-24 17:11:00,31.0,21.0,30.08,ESE,122,2.0,5.0,65,0.00,,,0.01,,2013-02-24 23:11:00,
2013-02-24 17:21:00,31.0,21.0,30.08,ESE,122,2.0,5.0,65,0.00,,,0.01,,2013-02-24 23:21:00,
2013-02-24 17:31:00,30.0,20.0,30.08,ESE,102,2.0,5.0,65,0.00,,,0.01,,2013-02-24 23:31:00,
2013-02-24 17:42:00,30.0,20.0,30.08,ESE,102,2.0,5.0,65,0.00,,,0.01,,2013-02-24 23:42:00,
2013-02-24 17:52:00,30.0,20.0,30.09,ESE,103,1.0,3.0,66,0.00,,,0.01,,2013-02-24 23:52:00,
2013-02-24 18:01:00,29.0,19.0,30.09,ESE,106,1.0,2.0,67,0.00,,,0.01,,2013-02-25 00:01:00,
2013-02-24 18:11:00,29.0,19.0,30.09,ESE,106,1.0,2.0,67,0.00,,,0.01,,2013-02-25 00:11:00,
2013-02-24 18:21:00,27.0,19.0,30.09,ESE,113,2.0,3.0,72,0.00,,,0.01,,2013-02-25 00:21:00,
2013-02-24 18:32:00,27.0,19.0,30.09,ESE,113,2.0,3.0,72,0.00,,,0.01,,2013-02-25 00:32:00,
2013-02-24 18:42:00,27.0,19.0,30.09,ESE,113,2.0,3.0,72,0.00,,,0.01,,2013-02-25 00:42:00,
2013-02-24 18:52:00,26.0,19.0,30.09,East,100,2.0,2.0,75,0.00,,,0.01,,2013-02-25 00:52:00,
2013-02-24 19:01:00,26.0,19.0,30.10,ESE,105,1.0,3.0,75,0.00,,,0.01,,2013-02-25 01:01:00,
2013-02-24 19:11:00,26.0,19.0,30.10,ESE,105,1.0,3.0,75,0.00,,,0.01,,2013-02-25 01:11:00,
2013-02-24 19:21:00,24.0,18.0,30.11,East,83,1.0,1.0,77,0.00,,,0.01,,2013-02-25 01:21:00,
2013-02-24 19:31:00,24.0,18.0,30.11,East,89,1.0,1.0,78,0.00,,,0.01,,2013-02-25 01:31:00,
2013-02-24 19:42:00,24.0,18.0,30.11,East,89,1.0,1.0,78,0.00,,,0.01,,2013-02-25 01:42:00,
2013-02-24 19:52:00,24.0,18.0,30.11,East,89,1.0,1.0,78,0.00,,,0.01,,2013-02-25 01:52:00,
2013-02-24 20:01:00,24.0,18.0,30.11,East,98,0.0,1.0,79,0.00,,,0.01,,2013-02-25 02:01:00,
2013-02-24 20:11:00,24.0,18.0,30.11,East,98,0.0,1.0,79,0.00,,,0.01,,2013-02-25 02:11:00,
2013-02-24 20:21:00,22.0,17.0,30.10,East,98,0.0,1.0,80,0.00,,,0.01,,2013-02-25 02:21:00,
2013-02-24 20:32:00,21.0,17.0,30.10,East,87,0.0,1.0,84,0.00,,,0.01,,2013-02-25 02:32:00,
2013-02-24 20:41:00,21.0,17.0,30.10,East,87,0.0,1.0,84,0.00,,,0.01,,2013-02-25 02:41:00,
2013-02-24 20:52:00,22.0,18.0,30.11,ESE,107,2.0,3.0,83,0.00,,,0.01,,2013-02-25 02:52:00,
2013-02-24 21:01:00,22.0,18.0,30.11,ESE,107,2.0,3.0,83,0.00,,,0.01,,2013-02-25 03:01:00,
2013-02-24 21:11:00,22.0,18.0,30.11,ESE,107,2.0,3.0,83,0.00,,,0.01,,2013-02-25 03:11:00,
2013-02-24 21:21:00,22.0,17.0,30.11,ESE,114,1.0,2.0,82,0.00,,,0.01,,2013-02-25 03:21:00,
2013-02-24 21:31:00,24.0,19.0,30.11,SSE,152,0.0,2.0,80,0.00,,,0.01,,2013-02-25 03:31:00,
2013-02-24 21:42:00,24.0,19.0,30.11,SSE,152,0.0,2.0,80,0.00,,,0.01,,2013-02-25 03:42:00,
2013-02-24 21:51:00,23.0,17.0,30.11,East,85,0.0,1.0,79,0.00,,,0.01,,2013-02-25 03:51:00,
2013-02-24 22:01:00,23.0,17.0,30.11,East,85,0.0,1.0,79,0.00,,,0.01,,2013-02-25 04:01:00,
2013-02-24 22:11:00,23.0,17.0,30.11,East,85,0.0,1.0,79,0.00,,,0.01,,2013-02-25 04:11:00,
2013-02-24 22:21:00,23.0,17.0,30.11,East,85,0.0,1.0,79,0.00,,,0.01,,2013-02-25 04:21:00,
2013-02-24 22:32:00,24.0,19.0,30.12,SSE,165,1.0,3.0,80,0.00,,,0.01,,2013-02-25 04:32:00,
2013-02-24 22:42:00,24.0,19.0,30.12,SSE,165,1.0,3.0,80,0.00,,,0.01,,2013-02-25 04:42:00,
2013-02-24 22:52:00,24.0,19.0,30.12,South,186,1.0,3.0,80,0.00,,,0.01,,2013-02-25 04:52:00,
2013-02-24 23:01:00,25.0,19.0,30.13,SSW,205,1.0,3.0,79,0.00,,,0.01,,2013-02-25 05:01:00,
2013-02-24 23:11:00,25.0,19.0,30.13,SSW,205,1.0,3.0,79,0.00,,,0.01,,2013-02-25 05:11:00,
2013-02-24 23:22:00,25.0,19.0,30.12,SSE,153,0.0,3.0,78,0.00,,,0.01,,2013-02-25 05:22:00,
2013-02-24 23:32:00,25.0,19.0,30.12,SSW,212,0.0,1.0,79,0.00,,,0.01,,2013-02-25 05:32:00,
2013-02-24 23:42:00,25.0,19.0,30.12,SSW,212,0.0,1.0,79,0.00,,,0.01,,2013-02-25 05:42:00,
2013-02-24 23:52:00,25.0,19.0,30.12,SSW,212,0.0,1.0,79,0.00,,,0.01,,2013-02-25 05:52:00,